Home > Time Zones > World Clock > Weather > Yemen > Aden > Past weeks

Flag for Yemen Weather past 2 weeks in Aden, Yemen

Now
93 °F

Duststorm.


Feels Like: 98 °F
Forecast: 82 / 91 °F
Wind: 15 mph from Southwest

Location: Aden

Current Time: Jul 28, 2014 at 6:37:05 PM

Latest Report: Jul 28, 2014 at 6:00 PM


Visibility: 2 mi

Pressure: 29.53 "Hg

Humidity: 44%

Dew point: 68 °F

Location of AdenLocation

Historic Weather in Aden — Graph

°F

Aden temperature yesterday

Maximum temperature yesterday: 93 °F (at 3:00 PM)
Minimum temperature yesterday: 84 °F (at 7:00 AM)
Average temperature yesterday: 88 °F

Past Weeks' High & Low Weather Summary

 TemperatureHumidityPressure
High99 °F (Jul 14, 5:00 PM)75% (Jul 17, 4:00 AM)29.77 "Hg (Jul 17, 4:00 AM)
Low84 °F (Jul 16, 4:00 AM)25% (Jul 14, 5:00 PM)29.47 "Hg (Jul 18, 5:00 PM)
Average91 °F56%29.60 "Hg
* Reported Jul 13 6:00 PM — Jul 28 5:00 PM, Aden, Weather by CustomWeather, © 2014

Note: Actual official high and low records may vary slightly from our data, if they occured in-between our weather recording intervals... More about our weather records

Advertising

Aden weather history for previous 24 hours

 ConditionsComfort  
Time TempWeatherWind HumidityBarometerVisibility
5:00 PM
Jul 28
93 °FSandstorm.24 mph41%29.50 "Hg2 mi
4:00 PM91 °FSandstorm.29 mph44%29.53 "Hg2 mi
3:00 PM91 °FSandstorm.26 mph44%29.56 "Hg3 mi
2:00 PM91 °FSandstorm.23 mph49%29.59 "Hg3 mi
1:00 PM91 °FSandstorm.23 mph49%29.65 "Hg3 mi
12:30 PM91 °FSandstorm.23 mph56%29.65 "Hg3 mi
11:00 AM90 °FPassing clouds.21 mph59%29.71 "Hg4 mi
10:00 AM91 °FPassing clouds.20 mph56%29.71 "Hg4 mi
9:00 AM90 °FScattered clouds.15 mph63%29.74 "Hg4 mi
8:00 AM86 °FClear.15 mph66%29.71 "Hg4 mi
7:00 AM84 °FPassing clouds.12 mph70%29.71 "Hg4 mi
6:00 AM86 °FScattered clouds.15 mph62%29.68 "Hg4 mi
5:00 AM86 °FPassing clouds.6 mph62%29.65 "Hg4 mi
4:00 AM86 °FPassing clouds.3 mph62%29.65 "Hg4 mi
3:00 AM86 °FPassing clouds.1 mph66%29.65 "Hg4 mi
2:00 AM86 °FPassing clouds.No wind66%29.65 "Hg4 mi
1:00 AM86 °FPassing clouds.5 mph66%29.65 "Hg4 mi
12:00 AM86 °FPartly cloudy.6 mph66%29.65 "Hg4 mi
11:00 PM
Jul 27
86 °FPassing clouds.10 mph66%29.71 "Hg4 mi
10:00 PM86 °FPassing clouds.10 mph66%29.68 "Hg4 mi
9:00 PM90 °FClear.5 mph52%29.68 "Hg4 mi
8:00 PM90 °FClear.7 mph52%29.65 "Hg4 mi
7:00 PM90 °FClear.12 mph49%29.65 "Hg4 mi
6:00 PM90 °FClear.18 mph52%29.62 "Hg4 mi
Weather by CustomWeather, © 2014

See weather overviewHow to use our weather pages